Regional Weather Roundup
Issued by NWS Upton, NY

Current Version | Previous Version | Graphics & Text | Print | Product List | Glossary Off
Versions: 1 2 3 4 5 6 7 8 9 10 11 12 13 14 15 16 17 18 19 20 21 22 23 24 25 26 27 28 29 30 31 32 33 34 35 36 37 38 39 40 41 42 43 44 45 46 47 48 49 50

251
ASUS41 KOKX 271404
RWROKX

REGIONAL WEATHER ROUNDUP
NATIONAL WEATHER SERVICE NEW YORK NY
1000 AM EDT TUE SEP 27 2016

NOTE: "FAIR" INDICATES FEW OR NO CLOUDS BELOW 12,000 FEET WITH NO
SIGNIFICANT WEATHER AND/OR OBSTRUCTIONS TO VISIBILITY.

NYZ071-072-176-178-NJZ106-104-271500-
NEW YORK CITY METRO AREA

CITY           SKY/WX    TMP DP  RH WIND       PRES   REMARKS
Central Park   PTSUNNY   65  60  84 W6        29.97R
LaGuardia APRT CLOUDY    68  60  75 NW6       29.94R
Kennedy INTL   CLOUDY    68  60  75 NW8       29.95R
Newark/Liberty PTSUNNY   67  62  84 W8        29.95R
Bronx Bot Gard   N/A     66  59  77 W6        29.96R
Wall St Helipt CLOUDY    66  63  88 W7        29.95R
Teterboro      PTSUNNY   67  60  78 W5        29.94R
$$

NYZ177-179-078>081-271500-
LONG ISLAND NEW YORK

CITY           SKY/WX    TMP DP  RH WIND       PRES   REMARKS
Farmingdale    CLOUDY    67  63  87 NW6       29.94R
MacArthur/ISP  CLOUDY    67  64  90 W7        29.93R
Shirley        CLOUDY    66  65  96 W6        29.94R
Riverhead      NOT AVBL
Westhampton    CLOUDY    66  63  90 W6        29.95R
Southampton      N/A     66  64  94 NW2       29.89R
Bridgehampton    N/A     66  64  94 CALM      29.77S
East Hampton   CLOUDY    66  64  96 CALM      29.91S
Montauk          N/A     67  65  93 W5        29.93R
$$

NYZ052-065-067-271500-
HUDSON VALLEY

CITY           SKY/WX    TMP DP  RH WIND       PRES   REMARKS
White Plains   CLOUDY    65  61  87 W8        29.93R
Newburgh       PTSUNNY   61  61 100 VRB6      29.95R
Montgomery     CLOUDY    63  61  93 VRB5      29.94R
Poughkeepsie   CLOUDY    62  60  93 CALM      29.93R
Albany         PTSUNNY   59  57  94 S3        29.93R FOG
$$

NJZ001-105-106-008-010-013-015-019>022-104-271500-
NEW JERSEY

CITY           SKY/WX    TMP DP  RH WIND       PRES   REMARKS
Newark/Liberty PTSUNNY   67  62  84 W8        29.95R
Teterboro      PTSUNNY   67  60  78 W5        29.94R
Caldwell       PTSUNNY   65  59  81 NW5       29.95S
Morristown     PTSUNNY   64  61  88 NW5       29.95R
Somerville     CLOUDY    66  61  84 VRB3      29.95R
Linden         NOT AVBL
Sussex         PTSUNNY   63  61  93 CALM      29.95S
Abdover          N/A     62  59  90 CALM      29.96R
Trenton        CLOUDY    65  60  84 W5        29.97R
Millville      CLOUDY    67  67 100 W3        29.97S
Atlantic City  CLOUDY    67  64  90 W6        29.97R
Wrightstown    PTSUNNY   66  63  90 NW6       29.94S
Toms River     CLOUDY    66  65  96 NW6       29.97R
Belmar         CLOUDY    65  63  93 W6        29.97R
$$

PAZ047>061-062-071-271500-
EASTERN PENNSYLVANIA

CITY           SKY/WX    TMP DP  RH WIND       PRES   REMARKS
Philadelphia   CLOUDY    67  61  81 W6        29.98R
Allentown      MOSUNNY   64  58  80 W3        29.97R HAZE
Scranton       MOSUNNY   61  56  83 SW3       29.97R
$$

CTZ002-004>006-009-010-012-RIZ004-006-007-MAZ004-011-015-271500-
SOUTHERN NEW ENGLAND
 IN CT

CITY           SKY/WX    TMP DP  RH WIND       PRES   REMARKS
Bradley INTL   CLOUDY    65  60  84 CALM      29.92R
Hartford       CLOUDY    66  60  81 NW3       29.92R
Danbury        CLOUDY    64  59  83 NW3       29.95R
Wtrbury/Oxford PTSUNNY   63  57  82 CALM      29.96R
Bridgeport     CLOUDY    68  61  78 NW6       29.93R
Meriden        CLOUDY    67  61  81 W3        29.93R
New Haven      CLOUDY    66  62  87 NW6       29.93R
Chester        PTSUNNY   64  63  94 CALM      29.93R
Groton         LGT RAIN  68  63  84 NW3       29.90S
Wilimantic     CLOUDY    65  64  97 CALM      29.92R

 IN RI

CITY           SKY/WX    TMP DP  RH WIND       PRES   REMARKS
Providence     CLOUDY    66  63  90 CALM      29.91R
Block Island   LGT RAIN  65  64  97 W8        29.92F FOG
Westerly       LGT RAIN  67  63  87 CALM      29.92R
 IN MA

CITY           SKY/WX    TMP DP  RH WIND       PRES   REMARKS
Boston         CLOUDY    65  62  90 NW3       29.89F
Worcester      PTSUNNY   62  58  86 NW8       29.92R
Westfield      CLOUDY    61  60  97 CALM      29.91S FOG
Provincetown   LGT RAIN  65  65 100 S14       29.88F
Nantucket      LGT RAIN  67  65  93 SW16      29.93F FOG
$$

ANZ330-335-338-340-345-350-353-355-271500-
COASTAL MARINE OBSERVATIONS


STATION/POSITION TIME  SKY/WX   TEMP    WIND        PRES    VSBY  WAVE
                                AIR SEA DIR/SP/G                  HT/PER
                 (UTC)          (F)     (DEG/KT/KT) (MB)    (MI)  (FT/S)
NY HARB ENTRANCE 1250            67 71  270/ 10/ 12 1013.3          3/ 6
20S FIRE ISLAND  1250            68 70  300/ 14/ 17 1012.9          5/ 6
GREAT SOUTH BAY  1330            67 69  290/ 10/ 12   N/A
23 SSW MONTAUK P 1250            69 68  220/ 14/ 16 1013.1          5/ 6
15 E BARNEGAT LI 1330               71                N/A           5/ 6
HUDSON CANYON    1250            69 69              1013.8          6/ 5
KINGS POINT      1330            66 72              1013.4
EXECUTION ROCKS  1345            66     290/  6/ 10   N/A
CENTRAL LI SOUND NOT AVBL
EASTERN LI SOUND NOT AVBL
ROBBINS REEF     1324            65     290/  8/ 10 1014.0
$$


>>>>>>>>>>>>>>>>>>>>>>>>>>>> KEY <<<<<<<<<<<<<<<<<<<<<<<<<<<
>                                                          <
>     SKY/WX - Sky Condition/Present Weather               <
>     TMP    - Temperature in Fahrenheit                   <
>     DP     - Dew Point in Fahrenheit                     <
>     RH     - Relative Humidity in Percent                <
>     WIND   - Direction (from) and Speed in MPH           <
>     PRES   - Mean Sea Level Pressure (inches of Hg)      <
>     WCI    - Wind Chill Index                            <
>     VSB    - VISIBILITY IN MILES                         <
>     HX     - HEAT INDEX                                  <
>     TC     - TEMPERATURE IN CELSIUS                      <
>     VRB    - VARIABLE WIND DIRECTION                     <
>                                                          <
>>>>>>>>>>>>>>>>>>>>>>>>>>>> KEY <<<<<<<<<<<<<<<<<<<<<<<<<<<




USA.gov is the U.S. government's official web portal to all federal, state and local government web resources and services.